| time (UTC) | temp C | wind direction | speed KPH | gust KPH | rain 1hr cm | rain 24hr cm | rain mn cm | humidity % | barometer mb |
| 20260510081901 | 11 | 0 | 0.0 | 1.6 | 0.03 | 0.05 | 0.03 | 64 | 757.5 |
| 20260510080230 | 11 | 0 | 0.0 | 1.6 | 0.03 | 0.05 | 0.03 | 64 | 757.5 |
| 20260510075229 | 10 | 332 | 3.2 | 4.8 | 0.03 | 0.05 | 0.03 | 64 | 757.5 |
| 20260510074229 | 10 | 0 | 0.0 | 8.0 | 0.03 | 0.05 | 0.03 | 64 | 757.5 |
| 20260510072556 | 10 | 0 | 0.0 | 0.0 | 0.00 | 0.03 | 0.00 | 64 | 757.5 |
| 20260510071557 | 10 | 0 | 0.0 | 0.0 | 0.00 | 0.03 | 0.00 | 64 | 757.5 |
| 20260510070557 | 10 | 0 | 0.0 | 0.0 | 0.00 | 0.03 | 0.00 | 63 | 757.5 |
| 20260510064938 | 10 | 0 | 0.0 | 0.0 | 0.00 | 0.03 | 0.00 | 63 | 757.5 |
| 20260510063938 | 10 | 0 | 0.0 | 4.8 | 0.00 | 0.03 | 0.00 | 63 | 757.5 |
| 20260510062938 | 10 | 312 | 1.6 | 4.8 | 0.00 | 0.03 | 0.00 | 63 | 757.5 |
| 20260510061325 | 10 | 120 | 1.6 | 4.8 | 0.00 | 0.03 | 0.00 | 62 | 757.5 |
| 20260510060325 | 10 | 0 | 0.0 | 0.0 | 0.00 | 0.03 | 0.00 | 62 | 757.5 |
| 20260510055325 | 10 | 0 | 0.0 | 0.0 | 0.00 | 0.03 | 0.00 | 61 | 757.5 |
| 20260510053712 | 9 | 0 | 0.0 | 0.0 | 0.00 | 0.03 | 0.00 | 60 | 757.5 |
| 20260510052713 | 9 | 0 | 0.0 | 0.0 | 0.00 | 0.03 | 0.00 | 59 | 757.5 |
| 20260510051712 | 9 | 0 | 0.0 | 0.0 | 0.00 | 0.03 | 0.00 | 59 | 757.5 |
| 20260510050057 | 9 | 0 | 0.0 | 0.0 | 0.00 | 0.03 | 0.00 | 59 | 757.5 |
| 20260510045057 | 9 | 0 | 0.0 | 0.0 | 0.00 | 0.03 | 0.00 | 59 | 757.5 |
| 20260510044057 | 9 | 0 | 0.0 | 0.0 | 0.00 | 0.03 | 0.00 | 59 | 757.5 |
| 20260510042447 | 9 | 0 | 0.0 | 0.0 | 0.00 | 0.03 | 0.00 | 59 | 757.5 |
| 20260510041446 | 9 | 0 | 0.0 | 0.0 | 0.00 | 0.03 | 0.00 | 59 | 757.5 |
| 20260510040446 | 9 | 0 | 0.0 | 0.0 | 0.00 | 0.03 | 0.00 | 59 | 757.5 |
| 20260510034846 | 10 | 0 | 0.0 | 0.0 | 0.00 | 0.03 | 0.03 | 59 | 757.5 |
| 20260510033846 | 10 | 0 | 0.0 | 0.0 | 0.00 | 0.03 | 0.03 | 59 | 757.5 |
| 20260510032845 | 10 | 0 | 0.0 | 0.0 | 0.00 | 0.03 | 0.03 | 59 | 757.5 |
| 20260510031240 | 10 | 0 | 0.0 | 0.0 | 0.00 | 0.03 | 0.03 | 60 | 757.5 |
| 20260510030241 | 10 | 0 | 0.0 | 0.0 | 0.00 | 0.03 | 0.03 | 60 | 757.5 |
| 20260510025241 | 10 | 0 | 0.0 | 0.0 | 0.00 | 0.03 | 0.03 | 60 | 757.5 |
| 20260510023619 | 11 | 0 | 0.0 | 0.0 | 0.00 | 0.03 | 0.03 | 60 | 757.5 |
| 20260510022619 | 11 | 0 | 0.0 | 0.0 | 0.00 | 0.03 | 0.03 | 60 | 757.5 |
| 20260510021619 | 11 | 0 | 0.0 | 0.0 | 0.00 | 0.03 | 0.03 | 60 | 757.5 |
| 20260510015949 | 11 | 0 | 0.0 | 0.0 | 0.00 | 0.03 | 0.03 | 59 | 757.5 |
| 20260510014949 | 12 | 0 | 0.0 | 0.0 | 0.00 | 0.03 | 0.03 | 59 | 757.5 |
| 20260510013949 | 12 | 0 | 0.0 | 0.0 | 0.00 | 0.03 | 0.03 | 59 | 757.5 |
| 20260510012326 | 12 | 0 | 0.0 | 0.0 | 0.00 | 0.03 | 0.03 | 58 | 757.5 |
| 20260510011326 | 12 | 0 | 0.0 | 0.0 | 0.00 | 0.03 | 0.03 | 59 | 757.5 |
| 20260510010325 | 13 | 0 | 0.0 | 0.0 | 0.00 | 0.03 | 0.03 | 59 | 757.5 |
| 20260510004705 | 13 | 0 | 0.0 | 0.0 | 0.00 | 0.03 | 0.03 | 58 | 757.5 |
| 20260510003705 | 13 | 0 | 0.0 | 0.0 | 0.00 | 0.03 | 0.03 | 58 | 757.5 |
| 20260510002705 | 13 | 0 | 0.0 | 0.0 | 0.00 | 0.03 | 0.03 | 58 | 757.5 |
| 20260510001034 | 14 | 0 | 0.0 | 0.0 | 0.00 | 0.03 | 0.03 | 58 | 757.5 |
| 20260510000034 | 14 | 0 | 0.0 | 1.6 | 0.00 | 0.03 | 0.03 | 58 | 757.5 |
| 20260509235034 | 14 | 0 | 0.0 | 0.0 | 0.00 | 0.03 | 0.03 | 58 | 757.5 |
| 20260509233415 | 14 | 0 | 0.0 | 1.6 | 0.00 | 0.03 | 0.03 | 58 | 757.5 |
| 20260509232415 | 14 | 0 | 0.0 | 1.6 | 0.00 | 0.03 | 0.03 | 58 | 757.5 |
| 20260509231415 | 14 | 0 | 0.0 | 3.2 | 0.00 | 0.03 | 0.03 | 58 | 757.5 |
| 20260509225541 | 14 | 0 | 0.0 | 3.2 | 0.00 | 0.03 | 0.03 | 58 | 757.5 |
| 20260509224540 | 14 | 0 | 0.0 | 3.2 | 0.00 | 0.03 | 0.03 | 58 | 757.5 |
| 20260509223540 | 15 | 115 | 1.6 | 4.8 | 0.00 | 0.03 | 0.03 | 59 | 757.5 |
| 20260509221919 | 15 | 0 | 0.0 | 0.0 | 0.00 | 0.03 | 0.03 | 59 | 757.5 |
| 20260509220919 | 14 | 0 | 0.0 | 0.0 | 0.00 | 0.03 | 0.03 | 59 | 757.5 |
| 20260509215919 | 14 | 0 | 0.0 | 0.0 | 0.00 | 0.03 | 0.03 | 59 | 757.5 |
| 20260509214301 | 14 | 0 | 0.0 | 0.0 | 0.00 | 0.03 | 0.03 | 59 | 757.5 |
| 20260509213300 | 14 | 0 | 0.0 | 0.0 | 0.00 | 0.03 | 0.03 | 59 | 757.5 |
| 20260509212300 | 14 | 0 | 0.0 | 0.0 | 0.00 | 0.03 | 0.03 | 59 | 757.5 |
| 20260509210629 | 14 | 0 | 0.0 | 0.0 | 0.00 | 0.03 | 0.03 | 58 | 757.5 |
| 20260509205629 | 14 | 0 | 0.0 | 0.0 | 0.00 | 0.03 | 0.03 | 58 | 757.5 |
| 20260509204630 | 14 | 0 | 0.0 | 0.0 | 0.00 | 0.03 | 0.03 | 59 | 757.5 |
| 20260509203017 | 13 | 0 | 0.0 | 3.2 | 0.00 | 0.03 | 0.03 | 59 | 757.5 |
| 20260509202016 | 13 | 0 | 0.0 | 3.2 | 0.00 | 0.03 | 0.03 | 60 | 757.5 |
| 20260509201016 | 13 | 0 | 0.0 | 3.2 | 0.00 | 0.03 | 0.03 | 60 | 757.5 |
| 20260509195356 | 13 | 0 | 0.0 | 0.0 | 0.00 | 0.03 | 0.03 | 59 | 757.5 |
| 20260509194356 | 13 | 0 | 0.0 | 0.0 | 0.00 | 0.03 | 0.03 | 59 | 757.5 |
| 20260509193355 | 13 | 0 | 0.0 | 0.0 | 0.00 | 0.03 | 0.03 | 59 | 757.5 |
| 20260509191743 | 13 | 0 | 0.0 | 0.0 | 0.00 | 0.03 | 0.03 | 60 | 757.5 |
| 20260509190743 | 13 | 0 | 0.0 | 0.0 | 0.00 | 0.03 | 0.03 | 60 | 757.5 |
| 20260509185743 | 13 | 0 | 0.0 | 3.2 | 0.00 | 0.03 | 0.03 | 60 | 757.5 |
| 20260509184113 | 13 | 327 | 1.6 | 4.8 | 0.00 | 0.03 | 0.03 | 60 | 757.5 |
| 20260509183114 | 13 | 0 | 0.0 | 0.0 | 0.00 | 0.03 | 0.03 | 60 | 757.5 |
| 20260509182114 | 13 | 0 | 0.0 | 0.0 | 0.00 | 0.03 | 0.03 | 60 | 757.5 |
| 20260509180404 | 13 | 0 | 0.0 | 0.0 | 0.00 | 0.03 | 0.03 | 60 | 757.5 |
| 20260509175405 | 13 | 0 | 0.0 | 1.6 | 0.00 | 0.03 | 0.03 | 59 | 757.5 |
| 20260509174405 | 13 | 0 | 0.0 | 3.2 | 0.00 | 0.03 | 0.03 | 59 | 757.5 |
| 20260509172700 | 13 | 0 | 0.0 | 3.2 | 0.00 | 0.03 | 0.03 | 59 | 757.5 |
| 20260509171658 | 13 | 0 | 0.0 | 3.2 | 0.00 | 0.03 | 0.03 | 60 | 757.5 |
| 20260509170658 | 14 | 209 | 1.6 | 3.2 | 0.00 | 0.03 | 0.03 | 60 | 757.5 |
| 20260509164941 | 14 | 0 | 0.0 | 0.0 | 0.00 | 0.03 | 0.03 | 60 | 757.5 |
| 20260509163941 | 14 | 0 | 0.0 | 3.2 | 0.00 | 0.03 | 0.03 | 61 | 757.5 |
| 20260509162941 | 14 | 0 | 0.0 | 1.6 | 0.00 | 0.03 | 0.03 | 61 | 757.5 |
| 20260509161234 | 14 | 0 | 0.0 | 0.0 | 0.00 | 0.03 | 0.03 | 60 | 757.5 |
| 20260509160234 | 14 | 0 | 0.0 | 3.2 | 0.00 | 0.03 | 0.03 | 59 | 757.5 |
| 20260509155234 | 14 | 210 | 1.6 | 6.4 | 0.00 | 0.03 | 0.03 | 59 | 757.5 |
| 20260509153518 | 15 | 209 | 3.2 | 6.4 | 0.00 | 0.03 | 0.03 | 59 | 757.5 |
| 20260509152517 | 15 | 197 | 3.2 | 4.8 | 0.00 | 0.03 | 0.03 | 59 | 757.5 |
| 20260509151517 | 15 | 195 | 3.2 | 6.4 | 0.00 | 0.03 | 0.03 | 59 | 757.5 |
| 20260509145811 | 15 | 0 | 0.0 | 0.0 | 0.00 | 0.03 | 0.03 | 59 | 757.5 |
| 20260509144811 | 14 | 0 | 0.0 | 0.0 | 0.00 | 0.03 | 0.03 | 59 | 757.5 |
| 20260509143810 | 14 | 0 | 0.0 | 0.0 | 0.00 | 0.03 | 0.03 | 58 | 757.5 |
| 20260509142051 | 14 | 0 | 0.0 | 0.0 | 0.00 | 0.03 | 0.03 | 57 | 757.5 |
| 20260509141052 | 14 | 162 | 1.6 | 6.4 | 0.00 | 0.03 | 0.03 | 57 | 757.5 |
| 20260509140052 | 14 | 0 | 0.0 | 6.4 | 0.00 | 0.03 | 0.03 | 57 | 757.5 |
| 20260509134346 | 13 | 0 | 0.0 | 6.4 | 0.00 | 0.03 | 0.03 | 57 | 757.5 |
| 20260509133347 | 13 | 0 | 0.0 | 4.8 | 0.00 | 0.03 | 0.03 | 57 | 757.5 |
| 20260509132347 | 13 | 0 | 0.0 | 3.2 | 0.00 | 0.03 | 0.03 | 58 | 757.5 |
| 20260509130632 | 12 | 135 | 1.6 | 4.8 | 0.00 | 0.03 | 0.03 | 58 | 757.5 |
| 20260509125631 | 12 | 0 | 0.0 | 3.2 | 0.00 | 0.03 | 0.03 | 59 | 757.5 |
| 20260509124631 | 12 | 160 | 1.6 | 6.4 | 0.00 | 0.05 | 0.03 | 60 | 757.5 |
| 20260509122923 | 12 | 164 | 1.6 | 3.2 | 0.00 | 0.05 | 0.03 | 61 | 757.5 |
| 20260509121923 | 11 | 0 | 0.0 | 3.2 | 0.00 | 0.05 | 0.03 | 61 | 757.5 |
| 20260509120923 | 11 | 0 | 0.0 | 0.0 | 0.00 | 0.05 | 0.03 | 61 | 757.5 |
| 20260509115216 | 11 | 0 | 0.0 | 0.0 | 0.03 | 0.05 | 0.03 | 62 | 757.5 |
| 20260509114216 | 11 | 0 | 0.0 | 0.0 | 0.03 | 0.05 | 0.03 | 62 | 757.5 |
| 20260509113216 | 11 | 0 | 0.0 | 0.0 | 0.03 | 0.05 | 0.03 | 62 | 757.5 |
| 20260509111501 | 11 | 0 | 0.0 | 0.0 | 0.03 | 0.05 | 0.03 | 63 | 757.5 |
| 20260509110501 | 11 | 0 | 0.0 | 0.0 | 0.00 | 0.03 | 0.00 | 63 | 757.5 |
| 20260509105501 | 11 | 0 | 0.0 | 0.0 | 0.00 | 0.03 | 0.00 | 63 | 757.5 |
| 20260509103752 | 11 | 0 | 0.0 | 0.0 | 0.00 | 0.03 | 0.00 | 63 | 757.5 |
| 20260509102752 | 11 | 0 | 0.0 | 0.0 | 0.00 | 0.03 | 0.00 | 63 | 757.5 |
| 20260509101752 | 11 | 0 | 0.0 | 0.0 | 0.00 | 0.03 | 0.00 | 63 | 757.5 |
| 20260509100046 | 11 | 0 | 0.0 | 0.0 | 0.00 | 0.03 | 0.00 | 63 | 757.5 |
| 20260509095045 | 11 | 0 | 0.0 | 0.0 | 0.00 | 0.03 | 0.00 | 62 | 757.5 |
| 20260509094045 | 11 | 0 | 0.0 | 0.0 | 0.00 | 0.03 | 0.00 | 62 | 757.5 |
| 20260509092345 | 11 | 0 | 0.0 | 0.0 | 0.00 | 0.03 | 0.00 | 63 | 757.5 |
| 20260509091345 | 11 | 0 | 0.0 | 0.0 | 0.00 | 0.03 | 0.00 | 62 | 757.5 |
| 20260509090344 | 11 | 0 | 0.0 | 0.0 | 0.00 | 0.03 | 0.00 | 63 | 757.5 |
| 20260509084712 | 11 | 0 | 0.0 | 0.0 | 0.00 | 0.03 | 0.00 | 62 | 757.5 |
| 20260509083711 | 11 | 0 | 0.0 | 0.0 | 0.00 | 0.03 | 0.00 | 62 | 757.5 |
| 20260509082711 | 11 | 0 | 0.0 | 0.0 | 0.00 | 0.03 | 0.00 | 63 | 757.5 |